Regional Weather Roundup
Issued by NWS

Home | Current Version | Previous Version | Graphics & Text | Print | Product List | Glossary On
Versions: 1 2 3 4 5 6 7 8 9 10 11 12 13 14 15 16 17 18 19 20 21 22 23 24 25 26 27 28 29 30 31 32 33 34 35 36 37 38 39 40 41 42 43 44 45 46 47 48 49 50
944
ASUS43 KOAX 091702
RWRNE

WEATHER ROUNDUP FOR NEBRASKA
NATIONAL WEATHER SERVICE OMAHA NE
1100 AM CST TUE FEB 09 2016

NOTES: SATELLITE DATA IS BEING USED TO AUGMENT CLOUD COVER ABOVE
       12000 FEET.
       "FAIR" INDICATES FEW OR NO CLOUDS BELOW 12,000 FEET WITH NO
       SIGNIFICANT WEATHER AND/OR OBSTRUCTIONS TO VISIBILITY.

  * THESE STATIONS DO NOT REPORT WEATHER SUCH AS RAIN...SNOW OR FOG.

NEZ001>004-019>022-054>056-091800-
NEBRASKA PANHANDLE

CITY           SKY/WX    TMP DP  RH WIND       PRES   REMARKS
SCOTTSBLUFF    PTSUNNY   43  27  53 NW14      30.27S
ALLIANCE       SUNNY     37  30  75 W13       30.22R WCI  29
CHADRON        CLOUDY    42  30  62 W17       30.24S
KIMBALL        SUNNY     41  28  59 W18       30.28R
SIDNEY         SUNNY     40  28  62 NW18      30.26R WCI  31
$$

NEZ057>060-069>072-079>082-091800-
SOUTHWEST NEBRASKA

CITY           SKY/WX    TMP DP  RH WIND       PRES   REMARKS
NORTH PLATTE   CLOUDY    31  20  63 W6        30.28R WCI  25
IMPERIAL       SUNNY     35  23  61 SW5       30.27S WCI  31
MCCOOK         CLOUDY    32  20  61 W6        30.29R WCI  26
$$

NEZ005>010-023>029-035>040-094-091800-
NORTH CENTRAL NEBRASKA

CITY           SKY/WX    TMP DP  RH WIND       PRES   REMARKS
VALENTINE      CLOUDY    24  12  60 E10       30.28F WCI  14
AINSWORTH      CLOUDY    24   9  53 NE6       30.29S WCI  17
BROKEN BOW     CLOUDY    26  15  63 N15       30.29R WCI  14
ORD            CLOUDY    24   9  52 N14       30.31R WCI  12
$$

NEZ041-046>049-061>064-073>077-083>087-091800-
SOUTH CENTRAL NEBRASKA

CITY           SKY/WX    TMP DP  RH WIND       PRES   REMARKS
GRAND ISLAND   CLOUDY    23  10  57 N18       30.32R WCI   9
HASTINGS       CLOUDY    26  13  57 N18       30.30R WCI  13
HEBRON         SUNNY     24  13  61 N18G24    30.31R WCI  11
$$

NEZ011>018-030>034-042>045-091800-
NORTHEAST NEBRASKA

CITY           SKY/WX    TMP DP  RH WIND       PRES   REMARKS
NORFOLK        SUNNY     20   9  62 N17G30    30.27R WCI   5
BLAIR          SUNNY     16   5  63 N14G23    30.26R WCI   1
COLUMBUS *     SUNNY     19   3  49 NW20      30.30R WCI   4
FREMONT        SUNNY     17   5  59 N16G24    30.29R WCI   2
TEKAMAH        SUNNY     21   5  50 N23       30.28R WCI   5
$$

NEZ050>053-065>068-078-088>093-091800-
SOUTHEAST NEBRASKA

CITY           SKY/WX    TMP DP  RH WIND       PRES   REMARKS
LINCOLN        SUNNY     21   8  57 N20       30.30R WCI   6
OMAHA EPPLEY   MOSUNNY   16   5  62 N23G30    30.28R WCI  -2
BEATRICE       SUNNY     23   8  52 N22G30    30.29R WCI   7
FALLS CITY     SUNNY     22   7  52 NW18G31   30.24R WCI   7
$$

NEZ044-045-051>053-067-091800-
OMAHA AREA

CITY           SKY/WX    TMP DP  RH WIND       PRES   REMARKS
OMAHA EPPLEY   MOSUNNY   16   5  62 N23G30    30.28R WCI  -2
BLAIR          SUNNY     16   5  63 N14G23    30.26R WCI   1
FREMONT        SUNNY     17   5  59 N16G24    30.29R WCI   2
$$




USA.gov is the U.S. government's official web portal to all federal, state and local government web resources and services.